Weather in Los Anzheles

United States     34°05′32″N   117°57′14″W
В апреле 2022 года жителям России запретили посещать сайт meteo.paraplan.net по решению Генеральной прокуратуры. Аудитория сайта уменьшилась в 10 раз. Владельцы сайта не видят смысла в поддержке погодного сервера в таких условиях. Сайт будет закрыт в октябре.
temp.,
°C
wind,
m/s
gust,
m/s
humid.,
%
clouds,
%
prec.,
mm/h
press.,
hPa
HPBL,
m
4 october, tue
tue423:00+22s21680 0.0 1013245
02:00+21s21750 0.0 1013198
05:00+20ssw11770 0.0 1013147
08:00+21sw11730 0.0 1014166
11:00+26sw22500 0.0 1013440
14:00+30sw44330 0.0 1012740
17:00+29sw44390 0.0 1011580
20:00+24ssw33570 0.0 1013346
5 october, wed
wed523:00+23ssw22650 0.0 1013256
02:00+22ssw11710 0.0 1013207
05:00+21sw11720 0.0 1013131
08:00+22ssw10670 0.0 1014131
11:00+27wsw22440 0.0 1014445
14:00+31wsw44310 0.0 1012787
17:00+29sw44370 0.0 1012616
20:00+25ssw33540 0.0 1014366
6 october, thu
thu623:00+23ssw21600 0.0 1014235
02:00+22sw22650 0.0 1014188
05:00+22sw11670 0.0 1014117
08:00+23sw11610 0.0 1015123
11:00+27sw22430 0.0 1015475
14:00+31sw44323 0.0 1013738
17:00+29sw44384 0.0 1013634
20:00+25ssw32500 0.0 1014342
7 october, fri
fri723:00+23ssw22610 0.0 1015231
02:00+23sw11630 0.0 1015148
05:00+22sw11640 0.0 101490
08:00+23w11540 0.0 101573
11:00+29sw22340 0.0 1015382
14:00+32wsw43270 0.0 1013647
17:00+30wsw44295 0.0 1012512
20:00+26s32410 0.0 1014336
8 october, sat
sat823:00+24ssw11530 0.0 1015204
02:00+23ssw22580 0.0 1014167
05:00+22wsw11640 0.0 1014122
08:00+23ssw11620 0.0 1015144
11:00+28sw11400 0.0 1015372
14:00+32sw432942 0.0 1013841
17:00+27ssw544567 0.0 1013590
20:00+25s32510 0.0 1015397